| time (UTC) | temp F | wind direction | speed MPH | gust MPH | rain 1hr in | rain 24hr in | rain mn in | humidity % | barometer mb |
| 20260504230017 | 82 | 0.0 | 3.0 | 0.00 | 0.00 | 0.00 | 37 | 1009.3 | |
| 20260504223017 | 81 | 0.0 | 2.0 | 0.00 | 0.00 | 0.00 | 37 | 1009.5 | |
| 20260504220016 | 80 | 0.0 | 4.0 | 0.00 | 0.00 | 0.00 | 36 | 1009.8 | |
| 20260504213016 | 79 | 270 | 1.0 | 5.0 | 0.00 | 0.00 | 0.00 | 40 | 1009.9 |
| 20260504210016 | 77 | 270 | 1.0 | 5.0 | 0.00 | 0.00 | 0.00 | 45 | 1010.1 |
| 20260504203016 | 75 | 270 | 1.0 | 6.0 | 0.00 | 0.00 | 0.00 | 48 | 1010.3 |
| 20260504200016 | 75 | 270 | 1.0 | 6.0 | 0.00 | 0.00 | 0.00 | 48 | 1010.2 |
| 20260504193016 | 74 | 0.0 | 3.0 | 0.00 | 0.00 | 0.00 | 46 | 1010.3 | |
| 20260504190016 | 73 | 0.0 | 3.0 | 0.00 | 0.00 | 0.00 | 48 | 1010.3 | |
| 20260504183016 | 73 | 0.0 | 5.0 | 0.00 | 0.00 | 0.00 | 48 | 1010.5 | |
| 20260504180016 | 71 | 0.0 | 3.0 | 0.00 | 0.00 | 0.00 | 52 | 1010.7 | |
| 20260504173016 | 69 | 0.0 | 1.0 | 0.00 | 0.00 | 0.00 | 59 | 1010.7 | |
| 20260504050015 | 67 | 0.0 | 0.0 | 0.00 | 0.00 | 0.00 | 58 | 1009.1 | |
| 20260504043015 | 69 | 0.0 | 0.0 | 0.00 | 0.00 | 0.00 | 52 | 1009.0 | |
| 20260504040015 | 71 | 0.0 | 1.0 | 0.00 | 0.00 | 0.00 | 48 | 1008.8 | |
| 20260504033015 | 72 | 0.0 | 1.0 | 0.00 | 0.00 | 0.00 | 47 | 1008.8 | |
| 20260504030017 | 74 | 0.0 | 2.0 | 0.00 | 0.00 | 0.00 | 47 | 1008.8 | |
| 20260504023017 | 76 | 0.0 | 2.0 | 0.00 | 0.00 | 0.00 | 42 | 1008.6 | |
| 20260504020015 | 79 | 0.0 | 3.0 | 0.00 | 0.00 | 0.00 | 37 | 1008.8 | |
| 20260504013017 | 83 | 0.0 | 5.0 | 0.00 | 0.00 | 0.00 | 35 | 1009.0 | |
| 20260504010017 | 82 | 270 | 1.0 | 4.0 | 0.00 | 0.00 | 0.00 | 39 | 1009.1 |
| 20260504003017 | 82 | 270 | 1.0 | 5.0 | 0.00 | 0.00 | 0.00 | 39 | 1009.5 |
| 20260504000017 | 82 | 0.0 | 5.0 | 0.00 | 0.00 | 0.00 | 39 | 1009.7 | |
| 20260503233017 | 83 | 0.0 | 4.0 | 0.00 | 0.00 | 0.00 | 40 | 1010.0 |